Location: Foligno
(42.9600°N, 12.7050°E)
Time: 11:15:47
(UTC+02:00)

ISS - Pass Details

Date: 09 May 2021
Orbit: 417 x 422 km, 51.6° (Epoch: 15 May)

Event Time Altitude Azimuth Distance (km) Brightness Sun altitude
Exits shadow 03:36:22 - 308° (NW) 1,613 -0.8 -20.4°
Reaches altitude 10° 03:36:44 10° 312° (NW) 1,504 -0.9 -20.4°
Maximum altitude 03:39:11 18° 359° (N) 1,099 -1.1 -20.1°
Drops below altitude 10° 03:41:37 10° 45° (NE) 1,506 0.3 -19.8°
Sets 03:44:11 0° 65° (ENE) 2,371 1.2 -19.5°
